Location: Black Swamp Observatory
(41.3920°N, 84.1250°W)
Time: 13:13:43
(UTC-04:00)

Vanguard 2 - Pass Details

Date: 26 January 2022
Orbit: 552 x 2935 km, 32.9° (Epoch: 24 May)

Event Time Altitude Azimuth Distance (km) Brightness Sun altitude
Exits shadow 05:03:46 11° 213° (SSW) 5,608 11.6 -31.8°
Drops below altitude 10° 05:05:31 10° 208° (SSW) 5,677 11.7 -31.5°
Enters shadow 06:26:34 -44° 326° (NW) 11,087 13.2 -16.3°
Maximum altitude 18:27:57 15° 135° (SE) 2,917 10.2 -8.3°
